Regional Weather Roundup
Issued by NWS Charleston, WV

Home | Current Version | Previous Version | Graphics & Text | Print | Product List | Glossary On
Versions: 1 2 3 4 5 6 7 8 9 10 11 12 13 14 15 16 17 18 19 20 21 22 23 24 25 26 27 28 29 30 31 32 33 34 35 36 37 38 39 40 41 42 43 44 45 46 47 48 49 50
000
ASUS41 KRLX 201110
RWRRLX
West Virginia Regional Weather Roundup
National Weather Service Charleston WV
700 AM EDT MON OCT 20 2014

Note: "fair" indicates few or no clouds below 12,000 feet with no
significant weather and/or obstructions to visibility.

WVZ003-201200-
Northern Panhandle of West Virginia

CITY           SKY/WX    TMP DP  RH WIND       PRES   REMARKS
WHEELING       CLOUDY    43  36  76 S9        30.01F
$$

WVZ009-201200-
Northwest West Virginia

CITY           SKY/WX    TMP DP  RH WIND       PRES   REMARKS
PARKERSBURG    CLOUDY    42  37  82 SE3       30.07S
$$

WVZ006-201200-
Western West Virginia

CITY           SKY/WX    TMP DP  RH WIND       PRES   REMARKS
HUNTINGTON     PTCLDY    37  37 100 SE3       30.05S FOG
$$

WVZ015-201200-
West Central West Virginia

CITY           SKY/WX    TMP DP  RH WIND       PRES   REMARKS
CHARLESTON     PTCLDY    36  36 100 CALM      30.07S FOG
$$

WVZ022-031-201200-
North Central West Virginia

CITY           SKY/WX    TMP DP  RH WIND       PRES   REMARKS
CLARKSBURG     MOCLDY    38  35  89 CALM      30.06S
MORGANTOWN     MOCLDY    42  36  79 CALM      30.06S
$$

WVZ025-035-042-045-201200-
Southern West Virginia

CITY           SKY/WX    TMP DP  RH WIND       PRES   REMARKS
BECKLEY        PTCLDY    35  32  88 CALM      30.07S
LOGAN            N/A     39  39 100 CALM      30.07R
BLUEFIELD      PTCLDY    42  33  70 CALM      30.08S
LEWISBURG      PTCLDY    34  32  94 CALM      30.09S
$$

WVZ047-201200-
Northern Mountains of West Virginia

CITY           SKY/WX    TMP DP  RH WIND       PRES   REMARKS
ELKINS         FOG       30  30 100 CALM      30.09S VSB 1/4
$$

WVZ052-201200-
Eastern Panhandle of West Virginia

CITY           SKY/WX    TMP DP  RH WIND       PRES   REMARKS
MARTINSBURG    MOCLDY    35  31  85 CALM      30.09S
PETERSBURG     MOCLDY   N/A N/A N/A CALM      30.09S
$$



USA.gov is the U.S. government's official web portal to all federal, state and local government web resources and services.